Location: Dannhausen
(51.8650°N, 10.1026°E)
Time: 12:32:46
(UTC+00:00)

Cosmos 1959 Rocket - Pass Details

Date: 09 April 2020
Orbit: 946 x 998 km, 82.9° (Epoch: 02 June)

Event Time Altitude Azimuth Distance (km) Brightness Sun altitude
Rises 19:38:36 0° 350° (N) 3,722 8.2 -13.7°
Reaches altitude 10° 19:41:11 10° 353° (N) 2,763 7.4 -14.0°
Maximum altitude 19:47:30 70° 77° (ENE) 1,043 4.5 -14.8°
Enters shadow 19:52:36 16° 160° (SSE) 2,304 6.0 -15.5°
